{"data":{"norad_id":66590,"intl_designator":"2025-270C","name":"STARLINK-35429","alt_names":[],"object_type":"PAYLOAD","status":"ACTIVE","operator":null,"country":"US","launch_date":"2025-11-22","launch_site_code":"AFETR","launch_vehicle":null,"mission":null,"orbit_class":"UNKNOWN","rcs_meters":null,"size_class":null,"mass_kg":null,"dimensions":null,"purposes":["comms"],"wikipedia_slug":null,"has_3d_model":false,"image_url":null,"decayed_at":null,"tle_current":{"epoch":"2026-05-24T22:41:58.548192Z","epoch_age_seconds":80565,"freshness":"FRESH","line1":"1 66590U 25270C   26144.94581653  .00009496  00000+0  35403-3 0  9995","line2":"2 66590  43.0025 345.9280 0001180 272.2417  87.8299 15.27591042 29479","mean_motion":15.27591042,"eccentricity":0.000118,"inclination_deg":43.0025,"raan_deg":345.928,"arg_perigee_deg":272.2417,"mean_anomaly_deg":87.8299,"bstar":0.00035403,"rev_number":2947,"period_min":94.266067318297,"perigee_km":482.20641646064,"apogee_km":483.82564857632,"semimajor_km":6861.1530325185,"source":"CELESTRAK","updated_at":"2026-05-25T13:38:21.286952Z"}}}